DW7013 Weather Reports


time (UTC)temp
C
wind
direction
speed
KPH
gust
KPH
rain 1hr
cm
rain 24hr
cm
rain mn
cm
humidity
%
barometer
mb
20260502214229 13 146 0.0 0.0 0.00 0.00 0.00 67 1018.8
20260502213712 13 146 0.0 0.0 0.00 0.00 0.00 67 1018.8
20260502213230 13 145 0.0 0.0 0.00 0.00 0.00 67 1018.8
20260502212728 13 142 0.0 0.0 0.00 0.00 0.00 67 1018.8
20260502211714 13 347 0.0 0.0 0.00 0.00 0.00 67 1018.7
20260502210723 13 236 0.0 0.0 0.00 0.00 0.00 67 1018.8
20260502210217 13 236 0.0 0.0 0.00 0.00 0.00 67 1018.8
20260502205724 13 236 0.0 0.0 0.00 0.00 0.00 66 1018.8
20260502205211 13 236 0.0 0.0 0.00 0.00 0.00 66 1018.8
20260502204720 13 236 0.0 0.0 0.00 0.00 0.00 66 1018.8
20260502204212 13 94 0.0 0.0 0.00 0.00 0.00 65 1018.8
20260502203727 14 125 0.0 0.0 0.00 0.00 0.00 65 1018.8
20260502203221 14 110 0.0 0.0 0.00 0.00 0.00 64 1018.8
20260502202224 14 111 0.0 0.0 0.00 0.00 0.00 64 1018.8
20260502201720 14 111 0.0 0.0 0.00 0.00 0.00 64 1018.8
20260502201211 14 90 0.0 0.0 0.00 0.00 0.00 64 1018.7
20260502200718 14 90 0.0 0.0 0.00 0.00 0.00 63 1018.7
20260502200229 15 90 0.0 0.0 0.00 0.00 0.00 63 1018.7
20260502195722 15 48 0.0 0.0 0.00 0.00 0.00 62 1018.7
20260502195209 15 10 0.0 0.0 0.00 0.00 0.00 61 1018.6
20260502194722 15 335 0.0 0.0 0.00 0.00 0.00 62 1018.7
20260502194224 15 38 0.0 0.0 0.00 0.00 0.00 62 1018.7
20260502193724 15 42 0.0 0.0 0.00 0.00 0.00 62 1018.7
20260502193216 15 42 0.0 0.0 0.00 0.00 0.00 62 1018.7
20260502192222 15 5 0.0 8.0 0.00 0.00 0.00 61 1018.8
20260502191722 16 15 0.0 8.0 0.00 0.00 0.00 60 1018.8
20260502191214 16 15 1.6 8.0 0.00 0.00 0.00 60 1018.7
20260502190714 16 355 1.6 8.0 0.00 0.00 0.00 59 1018.6
20260502190232 16 18 1.6 8.0 0.00 0.00 0.00 60 1018.6
20260502185721 16 24 1.6 8.0 0.00 0.00 0.00 60 1018.6
20260502185221 16 355 0.0 3.2 0.00 0.00 0.00 60 1018.5
20260502184722 16 355 0.0 3.2 0.00 0.00 0.00 60 1018.4
20260502184234 16 344 0.0 0.0 0.00 0.00 0.00 59 1018.5
20260502183716 16 355 0.0 0.0 0.00 0.00 0.00 59 1018.5
20260502183229 17 344 0.0 0.0 0.00 0.00 0.00 59 1018.5
20260502182210 17 344 0.0 0.0 0.00 0.00 0.00 59 1018.5
20260502181720 17 344 0.0 0.0 0.00 0.00 0.00 59 1018.5
20260502180718 17 341 0.0 0.0 0.00 0.00 0.00 58 1018.4
20260502180210 17 338 0.0 0.0 0.00 0.00 0.00 58 1018.3
20260502170229 20 320 0.0 0.0 0.00 0.00 0.00 49 1018.3
20260502164226 21 317 0.0 0.0 0.00 0.00 0.00 47 1018.4
20260502163729 21 325 0.0 0.0 0.00 0.00 0.00 46 1018.5
20260502162212 21 329 0.0 0.0 0.00 0.00 0.00 45 1018.7
20260502161708 21 306 0.0 0.0 0.00 0.00 0.00 45 1018.7
20260502161210 22 312 0.0 3.2 0.00 0.00 0.00 46 1018.8
20260502160720 22 341 0.0 8.0 0.00 0.00 0.00 45 1019.0
20260502160226 22 321 0.0 9.7 0.00 0.00 0.00 42 1019.0
20260502152218 23 321 4.8 12.9 0.00 0.00 0.00 39 1019.3
20260502151728 23 321 6.4 12.9 0.00 0.00 0.00 38 1019.3
20260502151208 23 331 6.4 11.3 0.00 0.00 0.00 39 1019.4
20260502150723 23 334 4.8 11.3 0.00 0.00 0.00 40 1019.4
20260502150223 23 335 4.8 12.9 0.00 0.00 0.00 38 1019.4
20260502130718 23 347 8.0 17.7 0.00 0.00 0.00 40 1020.8
20260502130220 23 304 1.6 11.3 0.00 0.00 0.00 41 1020.8
20260502122722 23 177 0.0 6.4 0.00 0.00 0.00 35 1021.2
20260502122223 23 49 0.0 9.7 0.00 0.00 0.00 35 1021.2
20260502121719 23 138 0.0 9.7 0.00 0.00 0.00 34 1021.3
20260502121240 22 170 0.0 11.3 0.00 0.00 0.00 33 1021.3
20260502120715 22 200 0.0 11.3 0.00 0.00 0.00 37 1021.5
20260502120227 22 301 1.6 14.5 0.00 0.00 0.00 34 1021.5
20260502115716 22 209 4.8 14.5 0.00 0.00 0.00 34 1021.7
20260502115222 22 253 4.8 14.5 0.00 0.00 0.00 34 1021.7
20260502114718 22 309 4.8 14.5 0.00 0.00 0.00 36 1021.7
20260502113724 22 163 0.0 16.1 0.00 0.00 0.00 35 1021.9
20260502113217 22 236 3.2 16.1 0.00 0.00 0.00 38 1021.9
20260502112726 22 187 3.2 14.5 0.00 0.00 0.00 37 1022.0
20260502112207 22 128 0.0 12.9 0.00 0.00 0.00 39 1022.0
20260502111726 22 229 1.6 12.9 0.00 0.00 0.00 38 1022.0
20260502111209 22 169 3.2 12.9 0.00 0.00 0.00 36 1022.1
20260502110758 21 124 1.6 11.3 0.00 0.00 0.00 36 1022.1
20260502110233 21 5 1.6 16.1 0.00 0.00 0.00 36 1022.2
20260502105722 21 199 1.6 16.1 0.00 0.00 0.00 39 1022.3
20260502105221 21 133 4.8 16.1 0.00 0.00 0.00 39 1022.3
20260502104724 21 214 6.4 14.5 0.00 0.00 0.00 40 1022.4
20260502104225 21 167 4.8 14.5 0.00 0.00 0.00 39 1022.4
20260502103719 21 171 3.2 11.3 0.00 0.00 0.00 43 1022.4
20260502103220 21 141 1.6 11.3 0.00 0.00 0.00 41 1022.4
20260502102717 21 191 1.6 9.7 0.00 0.00 0.00 43 1022.5
20260502102232 21 135 3.2 9.7 0.00 0.00 0.00 43 1022.5
20260502101232 21 165 0.0 9.7 0.00 0.00 0.00 46 1022.7
20260502100726 21 144 0.0 9.7 0.00 0.00 0.00 48 1022.8
20260502100223 20 130 1.6 11.3 0.00 0.00 0.00 49 1022.8
20260502091210 19 168 3.2 11.3 0.00 0.00 0.00 51 1023.4
20260502090219 18 193 1.6 9.7 0.00 0.00 0.00 50 1023.5
20260502071215 15 290 0.0 0.0 0.00 0.00 0.00 55 1023.7
20260502070718 14 333 0.0 0.0 0.00 0.00 0.00 54 1023.7
20260502070220 14 333 0.0 0.0 0.00 0.00 0.00 57 1023.8
20260502065719 13 333 0.0 0.0 0.00 0.00 0.00 58 1023.8
20260502065209 13 333 0.0 0.0 0.00 0.00 0.00 59 1023.9
20260502064747 12 333 0.0 0.0 0.00 0.00 0.00 64 1023.8
20260502063715 11 333 0.0 0.0 0.00 0.00 0.00 66 1023.8
20260502063218 11 333 0.0 0.0 0.00 0.00 0.00 66 1023.8
20260502062717 11 333 0.0 0.0 0.00 0.00 0.00 68 1023.8
20260502062226 10 333 0.0 0.0 0.00 0.00 0.00 67 1023.8
20260502061727 10 333 0.0 0.0 0.00 0.00 0.00 68 1023.9
20260502061222 10 333 0.0 0.0 0.00 0.00 0.00 70 1023.9
20260502060710 10 333 0.0 0.0 0.00 0.00 0.00 70 1023.9
20260502060219 9 333 0.0 0.0 0.00 0.00 0.00 69 1023.9
20260502055719 9 333 0.0 0.0 0.00 0.00 0.00 69 1023.9
20260502055223 9 333 0.0 0.0 0.00 0.00 0.00 69 1023.8
20260502054720 9 333 0.0 0.0 0.00 0.00 0.00 69 1023.9
20260502053724 8 333 0.0 0.0 0.00 0.00 0.00 69 1024.0
20260502053218 8 333 0.0 0.0 0.00 0.00 0.00 69 1023.9
20260502052717 8 333 0.0 0.0 0.00 0.00 0.00 68 1023.9
20260502052210 8 333 0.0 0.0 0.00 0.00 0.00 68 1023.9
20260502051220 8 333 0.0 0.0 0.00 0.00 0.00 69 1023.8
20260502050722 8 333 0.0 0.0 0.00 0.00 0.00 68 1023.7
20260502050218 8 333 0.0 0.0 0.00 0.00 0.00 67 1023.8
20260502045721 8 333 0.0 0.0 0.00 0.00 0.00 68 1023.7
20260502045227 8 333 0.0 0.0 0.00 0.00 0.00 67 1023.6
20260502044718 8 333 0.0 0.0 0.00 0.00 0.00 68 1023.6
20260502044217 8 333 0.0 0.0 0.00 0.00 0.00 67 1023.6
20260502043720 8 333 0.0 0.0 0.00 0.00 0.00 67 1023.7
20260502043207 8 169 0.0 0.0 0.00 0.00 0.00 67 1023.7
20260502042719 8 140 0.0 0.0 0.00 0.00 0.00 67 1023.6
20260502042223 8 140 0.0 0.0 0.00 0.00 0.00 67 1023.7
20260502041718 8 140 0.0 0.0 0.00 0.00 0.00 67 1023.6
20260502041232 8 140 0.0 0.0 0.00 0.00 0.00 67 1023.6
20260502040719 8 140 0.0 0.0 0.00 0.00 0.00 66 1023.6
20260502040217 8 140 0.0 0.0 0.00 0.00 0.00 66 1023.6
20260502035720 8 140 0.0 0.0 0.00 0.00 0.00 66 1023.6
20260502035224 8 140 0.0 0.0 0.00 0.00 0.00 66 1023.6
20260502034713 8 140 0.0 0.0 0.00 0.00 0.00 66 1023.6
20260502034223 8 140 0.0 0.0 0.00 0.00 0.00 66 1023.6
20260502033726 8 140 0.0 0.0 0.00 0.00 0.00 65 1023.6
20260502033211 8 140 0.0 0.0 0.00 0.00 0.00 65 1023.6
20260502032721 8 140 0.0 0.0 0.00 0.00 0.00 65 1023.6
20260502032212 8 140 0.0 0.0 0.00 0.00 0.00 65 1023.6
20260502031723 8 140 0.0 0.0 0.00 0.00 0.00 65 1023.6
20260502031225 8 140 0.0 0.0 0.00 0.00 0.00 65 1023.6
20260502030721 8 140 0.0 0.0 0.00 0.00 0.00 65 1023.6
20260502030226 8 140 0.0 0.0 0.00 0.00 0.00 66 1023.6
20260502025721 8 140 0.0 0.0 0.00 0.00 0.00 66 1023.7
20260502024719 8 140 0.0 0.0 0.00 0.00 0.00 65 1023.7
20260502024234 8 140 0.0 0.0 0.00 0.00 0.00 64 1023.8
20260502023712 8 140 0.0 0.0 0.00 0.00 0.00 65 1023.8
20260502023224 8 140 0.0 0.0 0.00 0.00 0.00 65 1023.8
20260502022722 8 140 0.0 0.0 0.00 0.00 0.00 65 1023.8
20260502022224 8 140 0.0 0.0 0.00 0.00 0.00 65 1023.8
20260502021214 8 140 0.0 0.0 0.00 0.00 0.00 64 1023.8
20260502020724 8 140 0.0 0.0 0.00 0.00 0.00 64 1023.8
20260502020217 8 140 0.0 0.0 0.00 0.00 0.00 64 1023.8
20260502015720 8 140 0.0 0.0 0.00 0.00 0.00 64 1023.8
20260502015221 8 140 0.0 0.0 0.00 0.00 0.00 64 1023.9
20260502012706 8 140 0.0 0.0 0.00 0.00 0.00 63 1024.0
20260502012215 8 140 0.0 0.0 0.00 0.00 0.00 63 1023.9
20260502011719 8 140 0.0 0.0 0.00 0.00 0.00 63 1023.9
20260502010719 8 140 0.0 0.0 0.00 0.00 0.00 63 1024.0
20260502010221 8 140 0.0 0.0 0.00 0.00 0.00 62 1024.0
20260502005727 8 140 0.0 0.0 0.00 0.00 0.00 62 1024.0
20260502005229 8 140 0.0 0.0 0.00 0.00 0.00 62 1024.0
20260502004725 8 140 0.0 0.0 0.00 0.00 0.00 62 1024.1
20260502004222 8 140 0.0 0.0 0.00 0.00 0.00 62 1024.1
20260502003723 8 140 0.0 0.0 0.00 0.00 0.00 62 1024.1
20260502003229 8 140 0.0 0.0 0.00 0.00 0.00 62 1024.1
20260502002725 8 140 0.0 0.0 0.00 0.00 0.00 62 1024.1
20260502002208 8 140 0.0 0.0 0.00 0.00 0.00 61 1024.3
20260502001718 9 140 0.0 0.0 0.00 0.00 0.00 61 1024.3
20260502000721 9 140 0.0 0.0 0.00 0.00 0.00 62 1024.4
20260501235222 9 140 0.0 0.0 0.00 0.00 0.00 61 1024.5
20260501234215 9 140 0.0 0.0 0.00 0.00 0.00 60 1024.5
20260501233718 9 140 0.0 0.0 0.00 0.00 0.00 60 1024.5
20260501233219 9 140 0.0 0.0 0.00 0.00 0.00 60 1024.5
20260501232726 9 140 0.0 0.0 0.00 0.00 0.00 60 1024.5
20260501232214 9 140 0.0 0.0 0.00 0.00 0.00 59 1024.5
20260501231711 9 140 0.0 0.0 0.00 0.00 0.00 59 1024.5
20260501231221 9 140 0.0 0.0 0.00 0.00 0.00 58 1024.5
20260501230717 9 140 0.0 0.0 0.00 0.00 0.00 58 1024.5
20260501230220 9 140 0.0 0.0 0.00 0.00 0.00 58 1024.5
20260501225716 9 141 0.0 0.0 0.00 0.00 0.00 58 1024.6
20260501225220 9 142 0.0 0.0 0.00 0.00 0.00 59 1024.6
20260501224733 9 123 0.0 0.0 0.00 0.00 0.00 57 1024.5
20260501224221 9 123 0.0 0.0 0.00 0.00 0.00 57 1024.6
20260501223715 9 123 0.0 0.0 0.00 0.00 0.00 58 1024.5
20260501223215 9 148 0.0 0.0 0.00 0.00 0.00 58 1024.5
20260501222714 9 63 0.0 0.0 0.00 0.00 0.00 57 1024.6
20260501222221 9 65 0.0 0.0 0.00 0.00 0.00 57 1024.6
20260501221722 9 65 0.0 0.0 0.00 0.00 0.00 57 1024.5
20260501221215 9 65 0.0 0.0 0.00 0.00 0.00 57 1024.5
20260501220729 10 59 0.0 0.0 0.00 0.00 0.00 56 1024.5
20260501215707 10 59 0.0 0.0 0.00 0.00 0.00 56 1024.5
20260501215223 10 59 0.0 0.0 0.00 0.00 0.00 56 1024.4
20260501214715 10 59 0.0 0.0 0.00 0.00 0.00 56 1024.5